Вернуться в каталог

STARLINK-36956

АктивенСвязьVLEO
NORAD 68009·PAYLOAD·🇺🇸 United States

Запущен Feb 27, 2026 с Vandenberg Space Force Base

Loading…

Ближайшие Пролёты (ближайшие 24 часа)

TLE

СвежийSource: CelesTrak SupGP

Эпоха: Sep 15, 2026, 02:40 UTC

1 68009C 26039Z   26258.11159722 -.00024237  00000+0 -87755-3 0  2586
2 68009  43.0041  59.1331 0002112 281.4197  72.9257 15.27600520    18

Отслеживайте STARLINK-36956 в реальном времени с AllMySat

Download on the App Store